Location: Newport
(44.6370°N, 124.0520°W)
Time: 19:37:47
(UTC-08:00)

Vanguard 1 Rocket - Visible Passes

Search period start: 18 February 2018 00:00
Search period end: 28 February 2018 00:00
Orbit: 655 x 4222 km, 34.3° (Epoch: 18 February)

Date Brightness Start Highest point End Pass type
(mag) Time Alt. Az. Time Alt. Az. Time Alt. Az.
18 Feb 10.3 02:41:52 64° S 02:41:52 64° S 03:01:27 10° ESE visible
18 Feb 10.4 04:59:08 30° W 05:11:13 47° SSW 05:26:24 10° SE visible
18 Feb 11.0 20:16:15 10° SSE 20:22:41 18° SE 20:22:41 18° SE visible
18 Feb 11.1 22:35:44 10° SW 23:17:10 13° E 23:18:50 10° E visible
19 Feb 10.7 01:34:26 50° ESE 01:34:26 50° ESE 01:49:01 10° E visible
19 Feb 10.4 03:51:42 49° WSW 03:57:50 57° SSW 04:15:46 10° SE visible
19 Feb 10.7 06:08:57 13° W 06:25:27 30° SW 06:37:58 10° S visible
19 Feb 10.8 21:25:32 10° SSW 22:09:46 - ENE 21:33:23 28° S visible
19 Feb 11.1 23:49:33 10° WSW 00:27:02 30° ESE 00:35:45 10° E visible
20 Feb 10.4 02:44:18 63° S 02:44:18 63° S 03:04:13 10° ESE visible
20 Feb 10.5 05:01:34 28° W 05:13:16 42° SW 05:28:44 10° SSE visible
20 Feb 10.8 20:16:52 10° S 20:26:46 24° SE 20:26:46 24° SE visible
20 Feb 10.9 22:37:58 10° SW 23:19:41 14° E 23:21:38 10° E visible
21 Feb 10.7 01:36:58 50° SE 01:36:58 50° SE 01:51:48 10° ESE visible
21 Feb 10.4 03:54:14 47° WSW 04:00:02 53° SSW 04:18:19 10° SE visible
21 Feb 10.9 06:11:31 11° W 06:27:14 25° SW 06:39:28 10° S visible
21 Feb 11.0 19:11:37 10° SE 19:18:28 13° ESE 19:20:11 13° ESE visible
21 Feb 10.6 21:27:26 10° SSW 22:12:24 - E 21:37:31 36° S visible
21 Feb 11.1 23:52:07 10° WSW 00:29:41 30° ESE 00:38:30 10° E visible
22 Feb 10.4 02:46:58 60° S 02:46:58 60° S 03:06:53 10° ESE visible
22 Feb 10.7 05:04:14 27° W 05:15:11 37° SW 05:30:47 10° SSE visible
22 Feb 10.6 20:18:11 10° S 20:30:56 30° SE 20:30:56 30° SE visible
22 Feb 10.7 22:40:24 10° SW 23:22:28 14° E 23:24:20 10° E visible
23 Feb 10.7 01:39:45 49° SE 01:39:45 49° SE 01:54:30 10° ESE visible
23 Feb 10.5 03:57:03 45° SW 04:02:07 49° SSW 04:20:39 10° SE visible
23 Feb 11.0 06:14:20 10° W 06:28:53 20° SW 06:40:20 10° SSW visible
23 Feb 10.8 19:11:00 10° SSE 19:20:05 18° ESE 19:24:21 16° ESE visible
23 Feb 10.4 21:29:39 10° SW 21:41:41 43° S 21:41:41 43° S visible
23 Feb 11.1 23:54:49 10° WSW 00:32:38 30° ESE 00:41:11 10° E visible
24 Feb 10.4 02:49:55 57° S 02:49:55 57° S 03:09:24 10° SE visible
24 Feb 10.8 05:07:13 25° WSW 05:16:59 32° SW 05:32:29 10° S visible
24 Feb 10.4 20:19:58 10° SSW 20:33:19 35° SE 20:35:04 34° SE visible
24 Feb 10.5 22:43:02 10° WSW 23:25:35 13° E 23:26:58 10° E visible
25 Feb 10.7 01:42:53 47° SE 01:42:53 47° SE 01:57:06 10° ESE visible
25 Feb 10.6 04:00:11 42° SW 04:04:05 44° SW 04:22:44 10° SSE visible
25 Feb 11.2 06:19:00 10° W 06:30:28 16° WSW 06:40:06 10° SSW visible
25 Feb 10.6 19:11:47 10° S 19:21:50 22° SE 19:28:24 19° ESE visible
25 Feb 10.2 21:32:06 10° SW 21:45:44 50° SSE 21:45:44 50° SSE visible
25 Feb 11.0 23:57:37 10° WSW 00:35:56 28° ESE 00:43:48 10° ESE visible
26 Feb 10.5 02:53:15 52° S 02:53:15 52° S 03:11:43 10° SE visible
26 Feb 10.9 05:10:33 23° WSW 05:18:40 27° SW 05:33:43 10° S visible
26 Feb 10.3 20:22:05 10° SSW 20:35:18 40° SE 20:39:02 37° ESE visible
26 Feb 10.4 22:45:47 10° WSW 23:29:03 11° E 23:29:33 10° E visible
27 Feb 10.8 01:13:07 10° W 01:46:23 42° SE 01:59:33 10° ESE visible
27 Feb 10.7 04:03:42 38° SW 04:05:57 38° SW 04:24:32 10° SSE visible
27 Feb 11.3 06:26:32 10° WSW 06:32:00 11° WSW 06:37:04 10° SW visible
27 Feb 10.4 19:13:17 10° S 19:23:40 27° SE 19:32:16 20° E visible
27 Feb 10.1 21:34:44 10° SW 21:49:36 55° SSE 21:49:36 55° SSE visible
